Location: Pierrefitte
(45.7833°N, 1.8667°E)
Time: 18:27:52
(UTC+00:00)

Daily predictions for brighter satellites

Satellite Brightness Start Highest point End
(mag) Time Altitude Azimuth Time Altitude Azimuth Time Altitude Azimuth
H-2A R/B 2.3 18:03:00 10° SSE 18:08:17 55° ENE 18:13:37 10° N
CZ-2C R/B 3.6 18:03:59 10° NE 18:08:30 26° E 18:12:54 10° SSE
USA 305 4.2 18:05:47 10° W 18:09:40 32° NNW 18:13:33 10° NE
IRS-1C Rocket 4.1 18:06:51 10° SSE 18:12:05 72° ENE 18:17:22 10° N
Gbstr 26 Del rocket 3.8 18:08:14 10° W 18:12:23 51° NNW 18:17:27 10° ENE
Meteor 1-20 Rocket 4.1 18:09:00 10° S 18:14:24 68° E 18:19:53 10° NNE
Cosmos 1302 Rocket 4.1 18:09:30 10° SSW 18:14:41 86° WNW 18:19:56 10° NNE
SL-4 R/B 2.9 18:11:56 10° WNW 18:15:11 30° N 18:18:18 10° ENE
CSL-04 DEB 4.4 18:15:18 10° NNE 18:19:17 85° WNW 18:23:17 10° SSW
USA 307 4.3 18:17:10 10° WNW 18:21:01 31° NNW 18:24:51 10° NE
FALCON 9 DEB 3.9 18:20:02 10° NW 18:23:16 38° NNE 18:26:13 12° E
ATLAS CENTAUR R/B 2.1 18:20:15 10° S 18:23:17 26° ESE 18:26:21 10° ENE
USA 306 4.3 18:20:39 10° WNW 18:24:28 30° NNW 18:28:15 10° NE
Cosmos 1354 Rocket 4.5 18:21:13 10° N 18:26:09 39° ENE 18:31:03 10° SE
Cosmos 44 Rocket 3.4 18:22:09 10° NNW 18:27:25 78° NE 18:32:36 10° SE
Okean-O 2.6 18:23:39 10° SSE 18:28:03 69° ENE 18:32:28 10° N
ERS-2 2.4 18:25:01 10° NNE 18:28:32 43° E 18:32:01 10° S
CSL-04 Rocket 4.0 18:24:12 10° SE 18:29:29 48° ENE 18:34:46 10° N
Cosmos 1844 Rocket 3.1 18:24:29 10° NNW 18:29:46 41° NE 18:35:00 10° SE
Cosmos 2084 Rocket 3.6 18:25:29 10° NW 18:29:47 61° NE 18:34:14 10° SE
SAR-Lupe-1 4.4 18:27:13 10° NNE 18:30:41 43° E 18:34:06 10° S
CSL-04 Debris 4.3 18:25:34 10° SE 18:30:49 52° ENE 18:36:08 10° N
USA 308 4.4 18:27:53 10° WNW 18:31:41 29° N 18:35:27 10° NE
Cosmos 1666 4.1 18:30:58 10° SE 18:33:31 18° E 18:36:04 10° NE
Cosmos 1271 Rocket 3.8 18:30:41 10° NNW 18:34:18 49° W 18:37:55 10° S
HJ-1C 3.4 18:32:45 10° SSE 18:35:58 54° ENE 18:39:13 10° N
Cosmos 1503 Rocket 4.1 18:31:21 10° NNW 18:36:28 54° ENE 18:41:31 10° SE
H-2A R/B 4.4 18:33:52 10° N 18:37:15 25° WNW 18:40:39 10° WSW
Cosmos 2341 Rocket 4.5 18:31:42 10° SSE 18:37:24 38° E 18:43:05 10° NNE
PSLV R/B 3.8 18:35:34 10° NNE 18:39:41 77° ESE 18:43:43 10° S
Cosmos 1470 Rocket 3.5 18:36:54 10° S 18:41:20 64° E 18:45:46 10° NNE
Cosmos 1844 4.1 18:36:04 10° NNW 18:41:36 43° NE 18:46:58 10° SE
CZ-4B R/B 3.2 18:40:49 10° N 18:43:35 32° WNW 18:46:22 10° SW
Cosmos 2360 Rocket 2.4 18:38:18 10° S 18:43:43 50° ESE 18:49:11 10° NE
Cosmos 1602 4.0 18:41:07 10° SSW 18:45:00 73° W 18:48:56 10° N
Ariane Rocket 4.1 18:42:04 14° ESE 18:45:05 24° ENE 18:49:05 10° N
Cosmos 2278 Rocket 3.9 18:43:15 10° N 18:46:27 15° NE 18:48:36 13° ENE
Meteor 1-19 Rocket 4.4 18:43:29 10° NNW 18:49:28 87° W 18:55:14 10° S
Cosmos 1500 3.1 18:48:23 10° S 18:52:03 61° E 18:55:45 10° NNE
Cosmos 2333 Rocket 3.1 18:49:22 10° SSE 18:54:01 27° ESE 18:58:43 10° NE
Meteor 2-4 Rocket 3.8 18:48:14 10° N 18:54:01 63° ENE 18:59:54 10° SSE
Cosmos 1703 Rocket 3.9 18:50:02 10° N 18:54:15 43° ENE 18:58:25 10° SSE
DMSP B5D1-3 4.5 18:49:36 10° NNE 18:54:48 85° ESE 18:59:58 10° SSW
SL-08 RB Rocket 3.6 18:52:09 10° SSE 18:56:37 72° ENE 19:01:11 10° N
Cosmos 1689 Rocket 2.3 18:54:10 10° N 18:57:02 68° WNW 18:59:54 10° SSW
Meteor 2-12 Rocket 4.4 18:51:25 10° S 18:57:29 81° E 19:03:36 10° N
ERBS 4.3 18:56:46 10° W 18:59:31 24° NNW 19:02:17 10° NNE
Cosmos 1933 Rocket 3.4 18:57:55 10° S 19:02:14 71° E 19:06:37 10° NNE
BREEZE-M DEB (TANK) 4.3 19:02:18 10° SSW 19:03:36 18° SSE 19:03:36 18° SSE
Aureole 2 Rocket 2.3 19:02:29 10° NNW 19:04:57 52° WSW 19:06:51 15° S
Resurs 01 Rocket 3.4 19:12:40 16° NE 19:12:40 16° NE 19:14:36 10° NNE
Cosmos 2242 Rocket 3.5 19:07:50 10° N 19:12:21 77° E 19:16:49 10° SSE
Cosmos 2322 Rocket 2.8 19:08:12 10° SW 19:13:42 58° WNW 19:19:17 10° NNE
Lacrosse 4 Rocket 2.7 19:12:02 10° SSE 19:14:29 24° SE 19:14:29 24° SE
Abrixas rocket 2.3 19:13:46 10° WNW 19:16:07 41° N 19:16:07 41° N
SME Rocket 4.3 19:11:04 10° NNE 19:18:48 49° E 19:23:55 10° S
Helios 1A Rocket 3.7 19:15:06 10° S 19:19:04 52° W 19:23:02 10° NNW
YAOGAN 1 4.4 19:16:02 10° SSW 19:19:55 32° W 19:23:51 10° NNW
SJ-6B 2.9 19:22:30 36° SE 19:23:53 56° ENE 19:27:53 10° N
COSMOS 2428 3.2 19:18:57 10° SSE 19:23:59 34° ESE 19:24:51 32° E
ASTEX 1 3.5 19:23:09 10° NNE 19:27:53 47° E 19:30:11 27° SSE
GP-B 3.4 19:23:32 10° S 19:27:57 69° W 19:32:24 10° N
MOS 1 4.4 19:25:33 25° SE 19:28:47 56° ENE 19:34:19 10° N
Cosmos 2219 Rocket 2.4 19:25:36 10° S 19:30:52 45° ESE 19:36:12 10° NE
Meteor 1-11 Rocket 3.8 19:25:44 10° S 19:31:17 54° E 19:36:45 10° NNE
MetOp-A 4.0 19:27:31 10° SSE 19:32:52 87° ENE 19:38:16 10° NNW
OBJECT-B 2.0 19:36:24 33° N 19:36:24 33° N 19:38:22 10° N
Resurs 1-3 4.0 19:38:47 44° NE 19:38:47 44° NE 19:42:36 10° N
SL-16 R/B 3.9 19:33:33 10° WSW 19:38:37 33° NW 19:43:44 10° NNE
SJ 16-02 2.7 19:36:53 10° N 19:39:35 25° NNE 19:39:35 25° NNE
SeaSat 1 3.1 19:36:27 10° NNE 19:41:17 55° NW 19:46:06 10° SW
Okean 1-7 3.4 19:37:10 10° NNW 19:41:30 63° W 19:45:45 10° S
CZ-4 R/B 4.5 19:41:31 10° WSW 19:43:33 14° W 19:45:38 10° WNW
Cosmos 1066 Rocket 4.2 19:38:04 10° N 19:43:45 62° ENE 19:45:41 40° SE
Meteor 1-13 Rocket 4.2 19:38:12 10° N 19:44:11 85° E 19:48:31 19° SSE
USA 234 3.1 19:39:53 22° NE 19:44:23 78° SE 19:50:55 10° SW
CZ-2C R/B 3.6 19:43:46 10° N 19:49:01 48° WNW 19:54:09 10° SW
IRS-1A Rocket 4.1 19:46:43 29° SSE 19:49:44 83° ENE 19:55:19 10° NNW
USA 305 4.3 19:46:49 10° NW 19:50:32 28° N 19:50:56 27° NNE
Cosmos 2322 3.6 19:45:06 10° SSW 19:50:49 82° ESE 19:56:35 10° NNE
BREEZE-M DEB (TANK) 2.8 19:48:07 10° WNW 19:50:50 55° NNE 19:51:09 53° NE
USA 186 4.4 19:56:43 12° NW 19:56:43 12° NW 19:57:01 10° NW
DMSP B5D2-2 4.5 19:49:44 10° N 19:54:55 63° WNW 20:00:02 10° SSW
SL-4 R/B 2.7 19:51:42 10° WNW 19:54:12 41° NW 19:54:12 41° NW
Cosmos 1869 Rocket 3.7 19:52:12 10° SSW 19:56:32 74° W 20:00:57 10° N
SL-8 Rocket 4.2 19:52:45 10° SSW 19:58:59 71° W 20:05:12 10° N
Gbstr 26 Del rocket 4.1 19:55:28 10° WNW 20:00:04 45° N 20:00:59 41° NE
USA 307 4.3 19:58:10 10° NW 20:01:49 28° N 20:01:49 28° N
ATLAS CENTAUR R/B 2.8 19:58:49 10° WSW 20:02:03 30° NW 20:03:10 25° N
USA 306 4.3 20:01:33 10° NW 20:05:03 29° N 20:05:03 29° N
Cosmos 1666 4.4 20:05:27 10° SW 20:08:49 32° WNW 20:12:13 10° N
USA 308 4.4 20:08:47 10° NW 20:11:59 29° N 20:11:59 29° N
Cosmos 1844 Rocket 4.2 20:08:36 10° NW 20:13:32 33° WSW 20:17:54 13° SSW
Cosmos 2366 rocket 4.3 20:07:45 10° SSW 20:14:02 68° W 20:20:24 10° N
SL-08 R/B 4.4 20:11:58 34° S 20:15:02 78° E 20:21:32 10° N
SPOT 3 Rocket 3.8 20:18:37 58° NNE 20:18:37 58° NNE 20:22:56 10° N
Okean 3 4.3 20:15:34 10° NNW 20:19:31 48° W 20:19:31 48° W
Ariane Rocket 3.7 20:22:15 39° SSW 20:23:43 51° W 20:28:42 10° NNW
Cosmos 2360 Rocket 4.0 20:23:02 10° WSW 20:27:57 30° NW 20:32:56 10° N
Cosmos 2278 Rocket 2.6 20:26:00 10° NNW 20:30:28 53° N 20:30:28 53° N
Cosmos 1727 Rocket 4.3 20:30:07 10° NNW 20:36:13 63° W 20:37:45 48° SSW
Cosmos 2333 Rocket 2.9 20:32:26 10° SW 20:37:58 51° WNW 20:43:33 10° NNE
Cosmos 1821 Rocket 4.5 20:41:55 49° N 20:41:55 49° N 20:46:17 10° N
Resurs 01 Rocket 3.6 20:50:14 25° NNW 20:50:14 25° NNW 20:52:11 10° NNW
Cosmos 1943 Rocket 4.2 20:46:21 10° N 20:48:24 17° NNE 20:48:24 17° NNE
Lacrosse 4 Rocket 4.1 20:50:14 10° WSW 20:50:57 14° WSW 20:50:57 14° WSW
COSMOS 2428 3.9 21:02:47 10° SW 21:14:01 - NNE 21:07:14 39° W
Cosmos 2219 Rocket 3.7 21:10:01 10° WSW 21:14:59 32° NW 21:20:00 10° N
SJ 16-02 4.1 21:15:27 10° NW 21:16:35 16° NW 21:16:35 16° NW
USA 234 4.0 21:27:15 46° NNW 21:27:15 46° NNW 21:33:18 10° W
